Weather History for KFMH - December, 2013

Change the Weather History Date:

Tuesday, December 10, 2013

  Actual Average Record
Temperature  
Mean Temperature 33 °F -  
Max Temperature 40 °F 43 °F 62 °F (2012)
Min Temperature 24 °F 28 °F 10 °F (2000)
Degree Days  
Heating Degree Days 32    
Moisture  
Dew Point 30 °F    
Average Humidity 93    
Maximum Humidity 100    
Minimum Humidity 64    
Precipitation  
Precipitation 0.12 in - - ()
Sea Level Pressure  
Sea Level Pressure 29.90 in    
Wind  
Wind Speed 6 mph (WNW)    
Max Wind Speed 17 mph    
Max Gust Speed 24 mph    
Visibility 6 miles    
Events Snow    
Averages and records for this station are not official NWS values.
T = Trace of Precipitation, MM = Missing Value Source: NWS Daily Summary

Daily Weather History Graph

Daily Weather History Graph

Search for Another Location

Airport or City:

Trip Planner

Search our weather history database for the weather conditions in past years. The results will help you decide how hot, cold, wet, or windy it might be!

Date:

Astronomy

Dec. 10, 2013 Rise Set
Actual Time 6:58 AM EST 4:11 PM EST
Civil Twilight 6:26 AM EST 4:43 PM EST
Nautical Twilight 5:52 AM EST 5:17 PM EST
Astronomical Twilight 5:18 AM EST 5:51 PM EST
Moon 12:15 PM EST (12/10) 12:08 AM EST (12/10)
Length of Visible Light 10h 16m
Length of Day
9h 13m
First Quarter, 61% of the Moon is Illuminated
Dec 10
First Quarter
Dec 17
Full
Dec 25
Last Quarter
Jan 1
New
Jan 7
First Quarter

Hourly Weather History & Observations

Time (EST) Temp. Windchill Dew Point Humidity Pressure Visibility Wind Dir Wind Speed Gust Speed Precip Events Conditions
12:15 AM 35.6 °F 29.9 °F 33.8 °F 93% 29.91 in 10.0 mi WSW 6.9 mph - N/A   Scattered Clouds
12:35 AM 35.6 °F 30.7 °F 32.0 °F 87% 29.92 in 10.0 mi West 5.8 mph - N/A   Scattered Clouds
12:55 AM 35.6 °F 29.9 °F 32.0 °F 87% 29.92 in 10.0 mi West 6.9 mph - N/A   Mostly Cloudy
1:15 AM 35.6 °F 31.7 °F 33.8 °F 93% 29.93 in 10.0 mi SW 4.6 mph - N/A   Mostly Cloudy
1:35 AM 33.8 °F 29.6 °F 32.0 °F 93% 29.93 in 10.0 mi WSW 4.6 mph - N/A   Partly Cloudy
1:55 AM 33.8 °F 29.6 °F 32.0 °F 93% 29.93 in 10.0 mi SW 4.6 mph - N/A   Scattered Clouds
2:15 AM 33.8 °F - 32.0 °F 93% 29.93 in 10.0 mi Calm Calm - N/A   Scattered Clouds
2:35 AM 32.0 °F 26.4 °F 32.0 °F 100% 29.93 in 9.0 mi SW 5.8 mph - N/A   Clear
2:55 AM 32.0 °F 26.4 °F 32.0 °F 100% 29.93 in 10.0 mi WSW 5.8 mph - N/A   Clear
3:15 AM 32.0 °F - 32.0 °F 100% 29.92 in 9.0 mi Calm Calm - N/A   Clear
3:35 AM 32.0 °F 28.7 °F 32.0 °F 100% 29.91 in 5.0 mi West 3.5 mph - N/A   Clear
3:55 AM 32.0 °F 27.5 °F 30.2 °F 93% 29.92 in 4.0 mi WSW 4.6 mph - N/A   Clear
4:15 AM 30.2 °F 25.4 °F 30.2 °F 100% 29.92 in 7.0 mi West 4.6 mph - N/A   Scattered Clouds
4:35 AM 32.0 °F 26.4 °F 30.2 °F 93% 29.91 in 5.0 mi WNW 5.8 mph - N/A   Scattered Clouds
4:55 AM 32.0 °F 24.8 °F 30.2 °F 93% 29.94 in 7.0 mi NW 8.1 mph - N/A   Mostly Cloudy
5:35 AM 32.0 °F 26.4 °F 30.2 °F 93% 29.97 in 7.0 mi WSW 5.8 mph - N/A   Overcast
5:55 AM 32.0 °F 25.6 °F 32.0 °F 100% 29.97 in 8.0 mi West 6.9 mph - N/A   Overcast
6:15 AM 32.0 °F 28.7 °F 32.0 °F 100% 29.97 in 6.0 mi WSW 3.5 mph - N/A   Overcast
6:35 AM 32.0 °F 28.7 °F 32.0 °F 100% 29.91 in 8.0 mi North 3.5 mph - N/A   Overcast
6:55 AM 32.0 °F 28.7 °F 32.0 °F 100% 29.92 in 9.0 mi WSW 3.5 mph - N/A   Overcast
7:15 AM 32.0 °F 28.7 °F 32.0 °F 100% 29.92 in 2.5 mi NW 3.5 mph - N/A   Scattered Clouds
7:35 AM 32.0 °F 26.4 °F 32.0 °F 100% 29.94 in 3.0 mi NW 5.8 mph - N/A   Scattered Clouds
7:55 AM 32.0 °F 28.7 °F 32.0 °F 100% 29.94 in 4.0 mi NW 3.5 mph - N/A   Partly Cloudy
8:15 AM 32.0 °F 27.5 °F 32.0 °F 100% 29.94 in 7.0 mi NW 4.6 mph - N/A   Partly Cloudy
8:35 AM 32.0 °F - 32.0 °F 100% 29.94 in 5.0 mi Calm Calm - N/A   Partly Cloudy
8:55 AM 32.0 °F 26.4 °F 32.0 °F 100% 29.95 in 5.0 mi West 5.8 mph - N/A   Partly Cloudy
9:15 AM 33.8 °F 28.6 °F 32.0 °F 93% 29.95 in 8.0 mi NW 5.8 mph - 0.01 in   Scattered Clouds
9:35 AM 33.8 °F 30.8 °F 32.0 °F 93% 29.94 in 10.0 mi NW 3.5 mph - 0.01 in   Partly Cloudy
9:55 AM 33.8 °F 28.6 °F 32.0 °F 93% 29.94 in 10.0 mi NW 5.8 mph - 0.01 in   Mostly Cloudy
10:15 AM 33.8 °F 27.7 °F 32.0 °F 93% 29.94 in 10.0 mi NW 6.9 mph - N/A   Mostly Cloudy
10:35 AM 32.0 °F 27.5 °F 32.0 °F 100% 29.93 in 0.5 mi NW 4.6 mph - 0.59 in Snow Snow
10:55 AM 32.0 °F 26.4 °F 32.0 °F 100% 29.91 in 0.5 mi NW 5.8 mph - 1.67 in Snow Snow
11:15 AM 32.0 °F 24.8 °F 32.0 °F 100% 29.90 in 0.2 mi NW 8.1 mph - 0.61 in Snow Heavy Snow
11:35 AM 32.0 °F 25.6 °F 32.0 °F 100% 29.87 in 0.5 mi NW 6.9 mph - 1.39 in Snow Snow
11:55 AM 32.0 °F 27.5 °F 32.0 °F 100% 29.85 in 0.8 mi NW 4.6 mph - 1.97 in Snow Light Snow
12:15 PM 32.0 °F 25.6 °F 32.0 °F 100% 29.83 in 1.5 mi NW 6.9 mph - 0.06 in Snow Light Snow
12:35 PM 32.0 °F 27.5 °F 32.0 °F 100% 29.80 in 2.0 mi NW 4.6 mph - 0.15 in Snow Light Snow
12:55 PM 32.0 °F 26.4 °F 32.0 °F 100% 29.80 in 2.5 mi NNW 5.8 mph - 0.20 in Snow Light Snow
1:15 PM 32.0 °F 24.8 °F 32.0 °F 100% 29.81 in 2.5 mi NNW 8.1 mph - 0.04 in Snow Light Snow
1:35 PM 32.0 °F 26.4 °F 32.0 °F 100% 29.80 in 2.0 mi NW 5.8 mph - 0.09 in Snow Light Snow
1:55 PM 32.0 °F 25.6 °F 32.0 °F 100% 29.80 in 1.0 mi NW 6.9 mph - 0.16 in Snow Light Snow
2:15 PM 32.0 °F 24.8 °F 32.0 °F 100% 29.81 in 2.5 mi NNW 8.1 mph - 0.01 in Snow Light Snow
2:35 PM 32.0 °F 26.4 °F 32.0 °F 100% 29.81 in 1.5 mi NNW 5.8 mph - 0.07 in Snow Light Snow
2:55 PM 32.0 °F 28.7 °F 32.0 °F 100% 29.80 in 0.8 mi NW 3.5 mph - 0.33 in Snow Light Snow
3:15 PM 32.0 °F 26.4 °F 32.0 °F 100% 29.80 in 2.5 mi NNW 5.8 mph - 0.03 in Snow Light Snow
3:35 PM 32.0 °F 26.4 °F 32.0 °F 100% 29.81 in 2.5 mi NNW 5.8 mph - 0.08 in Snow Light Snow
3:55 PM 32.0 °F 26.4 °F 32.0 °F 100% 29.81 in 2.5 mi NW 5.8 mph - 0.11 in Snow Light Snow
4:15 PM 32.0 °F 26.4 °F 30.2 °F 93% 29.83 in 1.0 mi NW 5.8 mph - 0.11 in Snow Light Snow
4:35 PM 32.0 °F 27.5 °F 30.2 °F 93% 29.84 in 2.5 mi NW 4.6 mph - 0.23 in Snow Light Snow
4:55 PM 32.0 °F 26.4 °F 30.2 °F 93% 29.84 in 3.0 mi WNW 5.8 mph - 0.27 in Snow Light Snow
5:15 PM 32.0 °F 24.8 °F 30.2 °F 93% 29.85 in 3.0 mi WNW 8.1 mph - 0.06 in Snow Light Snow
5:35 PM 32.0 °F 25.6 °F 30.2 °F 93% 29.85 in 2.5 mi WNW 6.9 mph - 0.27 in Snow Light Snow
5:55 PM 32.0 °F 24.8 °F 30.2 °F 93% 29.85 in 4.0 mi West 8.1 mph - 0.02 in Snow Light Snow
6:15 PM 32.0 °F 25.6 °F 30.2 °F 93% 29.85 in 6.0 mi West 6.9 mph - N/A Snow Light Snow
6:35 PM 32.0 °F 24.2 °F 30.2 °F 93% 29.86 in 6.0 mi WNW 9.2 mph - 0.01 in Snow Light Snow
6:55 PM 32.0 °F 24.2 °F 30.2 °F 93% 29.86 in 7.0 mi West 9.2 mph - 0.01 in Snow Light Snow
7:15 PM 32.0 °F 23.6 °F 30.2 °F 93% 29.87 in 7.0 mi WNW 10.4 mph - N/A Snow Light Snow
7:35 PM 32.0 °F 24.2 °F 30.2 °F 93% 29.88 in 8.0 mi NW 9.2 mph - N/A   Overcast
7:55 PM 32.0 °F 24.2 °F 30.2 °F 93% 29.89 in 10.0 mi WNW 9.2 mph - N/A   Overcast
8:15 PM 32.0 °F 22.1 °F 28.4 °F 87% 29.90 in 10.0 mi NW 13.8 mph - N/A   Overcast
8:35 PM 30.2 °F 20.2 °F 28.4 °F 93% 29.90 in 10.0 mi NW 12.7 mph 21.9 mph N/A   Overcast
8:55 PM 30.2 °F 19.3 °F 24.8 °F 80% 29.91 in 9.0 mi NW 15.0 mph 21.9 mph N/A Snow Light Snow
9:15 PM 28.4 °F 17.0 °F 24.8 °F 86% 29.92 in 10.0 mi NW 15.0 mph 24.2 mph N/A   Overcast
9:35 PM 28.4 °F 17.0 °F 23.0 °F 80% 29.94 in 10.0 mi WNW 15.0 mph 19.6 mph N/A   Overcast
9:55 PM 28.4 °F 18.0 °F 23.0 °F 80% 29.95 in 10.0 mi WNW 12.7 mph 18.4 mph N/A   Overcast
10:15 PM 28.4 °F 17.5 °F 23.0 °F 80% 29.96 in 10.0 mi WNW 13.8 mph 20.7 mph N/A   Mostly Cloudy
10:35 PM 26.6 °F 13.8 °F 19.4 °F 74% 29.98 in 10.0 mi WNW 17.3 mph 21.9 mph N/A   Partly Cloudy
10:55 PM 26.6 °F 16.2 °F 19.4 °F 74% 29.99 in 10.0 mi WNW 11.5 mph - N/A   Partly Cloudy
11:15 PM 26.6 °F 15.7 °F 19.4 °F 74% 30.00 in 10.0 mi WNW 12.7 mph 20.7 mph N/A   Clear
11:35 PM 26.6 °F 14.3 °F 19.4 °F 74% 30.02 in 10.0 mi WNW 16.1 mph 19.6 mph N/A   Clear
11:55 PM 24.8 °F 12.4 °F 19.4 °F 80% 30.02 in 10.0 mi WNW 15.0 mph 19.6 mph N/A   Clear